PDT,Max TemperatureF,Mean TemperatureF,Min TemperatureF,Max Dew PointF,MeanDew PointF,Min DewpointF,Max Humidity, Mean Humidity, Min Humidity, Max Sea Level PressureIn, Mean Sea Level PressureIn, Min Sea Level PressureIn, Max VisibilityMiles, Mean VisibilityMiles, Min VisibilityMiles, Max Wind SpeedMPH, Mean Wind SpeedMPH, Max Gust SpeedMPH,PrecipitationIn, CloudCover, Events, WindDirDegrees
2012-10-1,77,58,39,49,41,36,55,42,27,30.25,30.10,29.92,10,6,2,12,5,,0.00,0,,10
2012-10-2,73,60,46,47,26,14,48,29,10,30.27,30.01,29.91,10,10,10,29,13,38,0.00,0,,323
2012-10-3,57,44,31,27,22,18,50,33,21,30.46,30.37,30.29,10,10,9,8,4,,0.00,0,,289
2012-10-4,57,44,31,27,23,19,57,38,18,30.38,30.33,30.27,10,9,6,8,2,,0.00,0,,281
2012-10-5,64,50,35,26,22,19,59,39,19,30.42,30.36,30.30,10,9,3,12,3,14,0.00,0,,289
2012-10-6,61,42,23,28,24,20,57,37,20,30.39,30.30,30.21,10,8,5,8,4,,0.00,0,,289
2012-10-7,68,54,39,34,28,24,59,41,22,30.21,30.09,29.96,10,8,5,26,6,178,0.00,0,,308
2012-10-8,70,51,31,34,31,28,62,43,23,29.98,29.94,29.87,8,6,3,9,3,,0.00,0,,344
2012-10-9,74,60,45,40,37,34,71,48,25,30.08,30.00,29.96,10,9,5,12,5,,0.00,0,,52
2012-10-10,71,57,43,41,38,36,76,54,31,29.96,29.89,29.81,10,9,6,14,4,63,0.00,0,,88
2012-10-11,74,60,45,39,37,35,70,49,27,29.98,29.87,29.76,10,9,7,15,6,,0.00,0,,284
2012-10-12,66,48,29,44,40,35,68,54,41,29.89,29.79,29.74,10,10,7,12,5,77,T,1,,40
2012-10-13,70,61,52,52,46,44,86,63,40,30.09,30.04,29.92,10,10,10,14,4,20,0.01,6,Rain,300
2012-10-14,66,58,50,52,50,47,90,75,50,30.07,29.96,29.85,10,10,10,12,4,131,0.04,3,Rain,90
2012-10-15,69,60,51,54,49,42,93,66,39,29.87,29.74,29.52,10,10,10,20,4,,0.05,4,Rain,189
2012-10-16,59,49,38,52,39,26,94,64,28,30.13,29.73,29.50,10,7,0,37,11,51,T,2,Fog-Rain,301
2012-10-17,54,41,27,34,30,27,68,48,29,30.28,30.22,30.15,10,10,10,12,6,,0.00,1,,36
2012-10-18,63,49,34,37,34,32,77,57,37,30.24,30.09,29.82,10,10,10,13,3,,0.00,1,,115
2012-10-19,61,53,44,44,39,34,79,56,34,29.82,29.69,29.61,10,10,10,22,6,30,0.10,2,,300
2012-10-20,54,44,33,36,26,15,70,47,24,29.85,29.77,29.67,10,10,10,25,12,35,0.00,1,,293
2012-10-21,51,40,28,30,27,24,78,60,42,29.91,29.86,29.83,10,10,10,10,3,12,0.00,1,,24
2012-10-22,43,36,28,36,34,31,93,82,67,29.83,29.66,29.57,10,8,2,9,6,123,0.22,8,Rain,294
2012-10-23,47,43,38,36,35,33,85,75,65,29.94,29.80,29.63,10,10,8,9,4,39,0.00,6,,100
2012-10-24,43,36,28,36,35,33,93,85,79,30.18,30.03,29.94,10,8,4,8,4,,0.08,8,Rain,292
2012-10-25,51,42,33,36,33,30,89,70,50,30.42,30.34,30.18,10,10,10,9,4,15,0.00,2,,66
2012-10-26,36,32,28,36,35,34,89,84,76,30.38,30.21,30.08,10,8,2,7,3,83,0.14,8,Rain,114
2012-10-27,43,40,36,39,37,34,93,84,79,30.09,29.97,29.85,10,7,2,7,1,,0.16,8,Rain,282
2012-10-28,52,47,41,46,41,37,93,88,80,29.93,29.88,29.80,10,5,0,8,1,,0.13,7,Fog-Rain,261
2012-10-29,63,54,45,50,43,37,100,81,33,29.99,29.83,29.77,10,6,0,21,3,33,0.23,5,Fog-Rain,268
2012-10-30,57,53,49,49,46,40,89,74,59,29.97,29.89,29.85,10,10,6,7,3,,0.04,7,Rain,298
2012-10-31,55,51,47,50,49,46,89,86,83,29.85,29.75,29.68,10,9,3,8,2,,0.01,7,,309